Time,TemperatureF,DewpointF,PressureIn,WindDirection,WindDirectionDegrees,WindSpeedMPH,WindSpeedGustMPH,Humidity,HourlyPrecipIn,Conditions,Clouds,dailyrainin,SoftwareType,DateUTC
2013-07-22 00:02:00,71.0,68.0,-100.00,SW,225,8.0,-999.0,92,-99.99,,,-99.99,,2013-07-22 05:02:00,
2013-07-22 00:11:00,71.0,68.0,-100.00,SW,225,8.0,-999.0,92,-99.99,,,-99.99,,2013-07-22 05:11:00,
2013-07-22 00:22:00,73.0,69.0,-100.00,SW,225,7.0,-999.0,88,-99.99,,,-99.99,,2013-07-22 05:22:00,
2013-07-22 00:32:00,73.0,69.0,-100.00,SW,225,6.0,-999.0,86,-99.99,,,-99.99,,2013-07-22 05:32:00,
2013-07-22 00:42:00,73.0,69.0,-100.00,SW,225,6.0,-999.0,86,-99.99,,,-99.99,,2013-07-22 05:42:00,
2013-07-22 00:52:00,71.0,68.0,-100.00,South,180,6.0,-999.0,90,-99.99,,,-99.99,,2013-07-22 05:52:00,
2013-07-22 01:01:00,70.0,67.0,-100.00,SSW,203,5.0,-999.0,92,-99.99,,,-99.99,,2013-07-22 06:01:00,
2013-07-22 01:11:00,70.0,67.0,-100.00,SSW,203,5.0,-999.0,92,-99.99,,,-99.99,,2013-07-22 06:11:00,
2013-07-22 01:22:00,69.0,66.0,-100.00,SSE,158,6.0,-999.0,93,-99.99,,,-99.99,,2013-07-22 06:22:00,
2013-07-22 01:33:00,68.0,66.0,-100.00,South,180,8.0,-999.0,94,-99.99,,,-99.99,,2013-07-22 06:33:00,
2013-07-22 01:43:00,68.0,66.0,-100.00,South,180,8.0,-999.0,94,-99.99,,,-99.99,,2013-07-22 06:43:00,
2013-07-22 01:52:00,68.0,67.0,-100.00,South,180,5.0,-999.0,95,-99.99,,,-99.99,,2013-07-22 06:52:00,
2013-07-22 02:01:00,69.0,67.0,-100.00,South,180,6.0,-999.0,95,-99.99,,,-99.99,,2013-07-22 07:01:00,
2013-07-22 02:11:00,69.0,67.0,-100.00,South,180,6.0,-999.0,95,-99.99,,,-99.99,,2013-07-22 07:11:00,
2013-07-22 02:22:00,69.0,67.0,-100.00,South,180,6.0,-999.0,95,-99.99,,,-99.99,,2013-07-22 07:22:00,
2013-07-22 02:33:00,68.0,66.0,-100.00,SSE,158,5.0,-999.0,95,-99.99,,,-99.99,,2013-07-22 07:33:00,
2013-07-22 02:43:00,68.0,66.0,-100.00,SSE,158,5.0,-999.0,95,-99.99,,,-99.99,,2013-07-22 07:43:00,
2013-07-22 02:53:00,68.0,66.0,-100.00,SSE,158,6.0,-999.0,95,-99.99,,,-99.99,,2013-07-22 07:53:00,
2013-07-22 03:02:00,67.0,66.0,-100.00,SSE,158,4.0,-999.0,95,-99.99,,,-99.99,,2013-07-22 08:02:00,
2013-07-22 03:22:00,66.0,65.0,-100.00,SSE,158,4.0,-999.0,95,-99.99,,,-99.99,,2013-07-22 08:22:00,
2013-07-22 03:32:00,66.0,65.0,-100.00,SSE,158,4.0,-999.0,96,-99.99,,,-99.99,,2013-07-22 08:32:00,
2013-07-22 03:43:00,66.0,65.0,-100.00,SSE,158,4.0,-999.0,96,-99.99,,,-99.99,,2013-07-22 08:43:00,
2013-07-22 03:52:00,66.0,65.0,-100.00,South,180,6.0,-999.0,96,-99.99,,,-99.99,,2013-07-22 08:52:00,
2013-07-22 04:02:00,66.0,65.0,-100.00,South,180,5.0,-999.0,96,-99.99,,,-99.99,,2013-07-22 09:02:00,
2013-07-22 04:11:00,66.0,65.0,-100.00,South,180,5.0,-999.0,96,-99.99,,,-99.99,,2013-07-22 09:11:00,
2013-07-22 04:22:00,66.0,65.0,-100.00,South,180,5.0,-999.0,96,-99.99,,,-99.99,,2013-07-22 09:22:00,
2013-07-22 04:33:00,65.0,64.0,-100.00,South,180,5.0,-999.0,96,-99.99,,,-99.99,,2013-07-22 09:33:00,
2013-07-22 04:42:00,65.0,64.0,-100.00,South,180,5.0,-999.0,96,-99.99,,,-99.99,,2013-07-22 09:42:00,
2013-07-22 04:52:00,66.0,65.0,-100.00,South,180,3.0,-999.0,96,-99.99,,,-99.99,,2013-07-22 09:52:00,
2013-07-22 05:01:00,65.0,64.0,-100.00,SSE,158,5.0,-999.0,96,-99.99,,,-99.99,,2013-07-22 10:01:00,
2013-07-22 05:22:00,65.0,64.0,-100.00,SSE,158,2.0,-999.0,96,-99.99,,,-99.99,,2013-07-22 10:22:00,
2013-07-22 05:32:00,66.0,65.0,-100.00,South,180,2.0,-999.0,96,-99.99,,,-99.99,,2013-07-22 10:32:00,
2013-07-22 05:43:00,66.0,65.0,-100.00,South,180,2.0,-999.0,96,-99.99,,,-99.99,,2013-07-22 10:43:00,
2013-07-22 05:53:00,65.0,64.0,-100.00,South,180,5.0,-999.0,96,-99.99,,,-99.99,,2013-07-22 10:53:00,
2013-07-22 06:01:00,65.0,64.0,-100.00,South,180,4.0,-999.0,96,-99.99,,,-99.99,,2013-07-22 11:01:00,
2013-07-22 06:11:00,65.0,64.0,-100.00,South,180,4.0,-999.0,96,-99.99,,,-99.99,,2013-07-22 11:11:00,
2013-07-22 06:23:00,64.0,63.0,-100.00,South,180,4.0,-999.0,96,-99.99,,,-99.99,,2013-07-22 11:23:00,
2013-07-22 06:32:00,64.0,63.0,-100.00,South,180,3.0,-999.0,96,-99.99,,,-99.99,,2013-07-22 11:32:00,
2013-07-22 06:43:00,64.0,63.0,-100.00,South,180,3.0,-999.0,96,-99.99,,,-99.99,,2013-07-22 11:43:00,
2013-07-22 06:52:00,65.0,64.0,-100.00,SSE,158,3.0,-999.0,96,-99.99,,,-99.99,,2013-07-22 11:52:00,
2013-07-22 07:02:00,64.0,63.0,-100.00,South,180,5.0,-999.0,96,-99.99,,,-99.99,,2013-07-22 12:02:00,
2013-07-22 07:22:00,66.0,65.0,-100.00,SSW,203,4.0,-999.0,96,-99.99,,,-99.99,,2013-07-22 12:22:00,
2013-07-22 07:32:00,69.0,68.0,-100.00,SSW,203,5.0,-999.0,96,-99.99,,,-99.99,,2013-07-22 12:32:00,
2013-07-22 07:43:00,69.0,68.0,-100.00,SSW,203,5.0,-999.0,96,-99.99,,,-99.99,,2013-07-22 12:43:00,
2013-07-22 07:53:00,70.0,69.0,-100.00,SW,225,5.0,-999.0,96,-99.99,,,-99.99,,2013-07-22 12:53:00,
2013-07-22 08:01:00,71.0,70.0,-100.00,WSW,248,6.0,-999.0,96,-99.99,,,-99.99,,2013-07-22 13:01:00,
2013-07-22 08:22:00,73.0,71.0,-100.00,WSW,248,6.0,-999.0,96,-99.99,,,-99.99,,2013-07-22 13:22:00,
2013-07-22 08:32:00,74.0,73.0,-100.00,SW,225,6.0,-999.0,96,-99.99,,,-99.99,,2013-07-22 13:32:00,
2013-07-22 08:43:00,74.0,73.0,-100.00,SW,225,6.0,-999.0,96,-99.99,,,-99.99,,2013-07-22 13:43:00,
2013-07-22 08:53:00,75.0,73.0,-100.00,SW,225,6.0,-999.0,96,-99.99,,,-99.99,,2013-07-22 13:53:00,
2013-07-22 09:01:00,76.0,74.0,-100.00,WSW,248,9.0,-999.0,94,-99.99,,,-99.99,,2013-07-22 14:01:00,
2013-07-22 09:22:00,77.0,74.0,-100.00,WSW,248,11.0,-999.0,90,-99.99,,,-99.99,,2013-07-22 14:22:00,
2013-07-22 09:32:00,79.0,74.0,-100.00,SW,225,9.0,-999.0,85,-99.99,,,-99.99,,2013-07-22 14:32:00,
2013-07-22 09:43:00,79.0,74.0,-100.00,SW,225,9.0,-999.0,85,-99.99,,,-99.99,,2013-07-22 14:43:00,
2013-07-22 10:42:00,84.0,75.0,-100.00,SSE,158,11.0,-999.0,75,-99.99,,,-99.99,,2013-07-22 15:42:00,
2013-07-22 16:01:00,90.0,-99.9,-100.00,South,180,18.0,-999.0,40,-99.99,,,-99.99,,2013-07-22 21:01:00,
2013-07-22 16:22:00,87.0,-99.9,-100.00,South,180,17.0,-999.0,37,-99.99,,,-99.99,,2013-07-22 21:22:00,
2013-07-22 16:33:00,85.0,-99.9,-100.00,South,180,11.0,-999.0,38,-99.99,,,-99.99,,2013-07-22 21:33:00,
2013-07-22 16:43:00,85.0,-99.9,-100.00,South,180,11.0,-999.0,38,-99.99,,,-99.99,,2013-07-22 21:43:00,
2013-07-22 17:01:00,85.0,71.0,-100.00,SSE,158,7.0,-999.0,63,-99.99,,,-99.99,,2013-07-22 22:01:00,
2013-07-22 17:11:00,85.0,71.0,-100.00,SSE,158,7.0,-999.0,63,-99.99,,,-99.99,,2013-07-22 22:11:00,
2013-07-22 17:22:00,90.0,72.0,-100.00,South,180,6.0,-999.0,54,-99.99,,,-99.99,,2013-07-22 22:22:00,
2013-07-22 17:32:00,96.0,72.0,-100.00,South,180,7.0,-999.0,46,-99.99,,,-99.99,,2013-07-22 22:32:00,
2013-07-22 19:52:00,99.0,74.0,-100.00,SW,225,4.0,-999.0,45,-99.99,,,-99.99,,2013-07-23 00:52:00,
2013-07-22 20:01:00,95.0,76.0,-100.00,SW,225,5.0,-999.0,54,-99.99,,,-99.99,,2013-07-23 01:01:00,
2013-07-22 20:22:00,91.0,77.0,-100.00,SSE,158,8.0,-999.0,63,-99.99,,,-99.99,,2013-07-23 01:22:00,
2013-07-22 20:32:00,88.0,73.0,-100.00,West,270,4.0,-999.0,61,-99.99,,,-99.99,,2013-07-23 01:32:00,
2013-07-22 20:43:00,88.0,73.0,-100.00,West,270,4.0,-999.0,61,-99.99,,,-99.99,,2013-07-23 01:43:00,
2013-07-22 20:53:00,89.0,72.0,-100.00,SE,135,4.0,-999.0,57,-99.99,,,-99.99,,2013-07-23 01:53:00,
2013-07-22 21:01:00,87.0,72.0,-100.00,South,180,6.0,-999.0,62,-99.99,,,-99.99,,2013-07-23 02:01:00,
2013-07-22 21:11:00,87.0,72.0,-100.00,South,180,6.0,-999.0,62,-99.99,,,-99.99,,2013-07-23 02:11:00,
2013-07-22 21:22:00,83.0,72.0,-100.00,South,180,3.0,-999.0,69,-99.99,,,-99.99,,2013-07-23 02:22:00,
2013-07-22 21:33:00,82.0,73.0,-100.00,South,180,3.0,-999.0,73,-99.99,,,-99.99,,2013-07-23 02:33:00,
2013-07-22 21:43:00,82.0,73.0,-100.00,South,180,3.0,-999.0,73,-99.99,,,-99.99,,2013-07-23 02:43:00,
2013-07-22 21:53:00,82.0,73.0,-100.00,South,180,2.0,-999.0,74,-99.99,,,-99.99,,2013-07-23 02:53:00,
2013-07-22 22:01:00,82.0,73.0,-100.00,SSW,203,3.0,-999.0,73,-99.99,,,-99.99,,2013-07-23 03:01:00,
2013-07-22 22:11:00,82.0,73.0,-100.00,SSW,203,3.0,-999.0,73,-99.99,,,-99.99,,2013-07-23 03:11:00,
2013-07-22 22:22:00,82.0,72.0,-100.00,SSW,203,4.0,-999.0,72,-99.99,,,-99.99,,2013-07-23 03:22:00,
2013-07-22 22:33:00,81.0,72.0,-100.00,SSW,203,0.0,-999.0,72,-99.99,,,-99.99,,2013-07-23 03:33:00,
2013-07-22 22:43:00,81.0,72.0,-100.00,SSW,203,0.0,-999.0,72,-99.99,,,-99.99,,2013-07-23 03:43:00,
2013-07-22 22:52:00,79.0,72.0,-100.00,SSW,203,0.0,-999.0,79,-99.99,,,-99.99,,2013-07-23 03:52:00,
2013-07-22 23:01:00,79.0,73.0,-100.00,SW,225,0.0,-999.0,80,-99.99,,,-99.99,,2013-07-23 04:01:00,
2013-07-22 23:11:00,79.0,73.0,-100.00,SW,225,0.0,-999.0,80,-99.99,,,-99.99,,2013-07-23 04:11:00,
2013-07-22 23:21:00,80.0,72.0,-100.00,SW,225,0.0,-999.0,77,-99.99,,,-99.99,,2013-07-23 04:21:00,
2013-07-22 23:32:00,74.0,70.0,-100.00,North,0,6.0,-999.0,87,-99.99,,,-99.99,,2013-07-23 04:32:00,
2013-07-22 23:43:00,74.0,70.0,-100.00,North,0,6.0,-999.0,87,-99.99,,,-99.99,,2013-07-23 04:43:00,
2013-07-22 23:53:00,74.0,70.0,-100.00,NE,45,4.0,-999.0,88,-99.99,,,-99.99,,2013-07-23 04:53:00,